Regional Weather Roundup
Issued by NWS Grand Forks, ND

Home | Current Version | Previous Version | Text Only | Print | Product List | Glossary Off
Versions: 1 2 3 4 5 6 7 8 9 10 11 12 13 14 15 16 17 18 19 20 21 22 23 24 25 26 27 28 29 30 31 32 33 34 35 36 37 38 39 40 41 42 43 44 45 46 47 48 49 50

000
ASUS43 KFGF 060131
RWRFGF
PRAIRIE TO PINES  WEATHER ROUNDUP
NATIONAL WEATHER SERVICE EASTERN NORTH DAKOTA/GRAND FORKS ND
800 PM CDT THU MAY 05 2016

 **SATELLITE DATA USED TO AUGMENT SKY COVER AT AUTOMATED STATIONS**
 *****  WEATHER ACROSS EASTERN NORTH DAKOTA  *****

CITY           SKY/WX    TMP DP  RH WIND       PRES   REMARKS
GRAND FORKS    PTCLDY    85  35  16 W9        29.71S
GRAND FRKS AFB CLEAR     86  36  16 SW9       29.72S
DEVILS LAKE    CLOUDY    77  41  27 SW9       29.74F
FARGO          CLEAR     84  38  19 SW13      29.75S
WAHPETON ARPT  CLEAR     79  32  18 SW9       29.80S
$$

 ***** WEATHER ACROSS CENTRAL AND WESTERN NORTH DAKOTA  *****

CITY           SKY/WX    TMP DP  RH WIND       PRES   REMARKS
BISMARCK       PTCLDY    82  42  24 SW6       29.77F
MINOT          CLOUDY    87  38  17 S7        29.72F
JAMESTOWN      CLEAR     83  40  21 SW10      29.76S
MINOT AFB      CLOUDY    85  41  20 SW6       29.71S
GARRISON         N/A     77  42  28 S5        29.75F
WILLISTON      PTSUNNY   85  42  22 SW9       29.73F
DICKINSON      MOCLDY    81  38  21 CALM      29.79S
HETTINGER      MOCLDY    76  55  48 S5        29.83F
$$

 *****  OTHER AIRPORT OBSERVATIONS IN OUR AREA  *****

CITY           SKY/WX    TMP DP  RH WIND       PRES   REMARKS
WALHALLA       FAIR      84  41  21 SW7       29.67S
GRAFTON AIRPOR FAIR      84  41  21 SW12      29.71S
VALLEY CITY AR FAIR      81  43  26 SW15      29.79S
CANDO          FAIR      77  37  24 SW9       29.74S
CAVALIER APRT  FAIR      84  41  21 SW6       29.67S
GWINNER        FAIR      82  39  21 SW13      29.80S
SHEYENNE NWR     N/A     84  41  21 SW7       29.95S
ROLLA            N/A     79  39  24 SW10      29.72F
 ***** THE ABOVE OBSERVATIONS ARE NON NWS ARE NOT QUALITY
       CONTROLLED AND MAY MIS-REPORT RAIN FOR SNOW...
$$

  *****  WEATHER ACROSS NORTHERN MINNESOTA  *****

CITY           SKY/WX    TMP DP  RH WIND       PRES   REMARKS
FLAG ISLAND    CLEAR     84  32  15 CALM      29.66S
WARROAD        PTCLDY    73  48  40 CALM      29.68S
ROSEAU         CLEAR     82  37  20 SW5       29.68S
HALLOCK        PTCLDY    84  30  14 SW10      29.66S
THF RVR FALLS  CLEAR     84  34  16 SW10      29.74S
BAUDETTE       PTCLDY    80  37  21 N6        29.69R
WASKISH        CLEAR     75  45  33 SW13      29.72R
CROOKSTON      CLEAR     82  34  17 W9        29.73S
STEPHEN NDAWN    N/A     86  36  16 SW8         N/A
GREENBUSH NDAW   N/A     82  39  21 SW8         N/A
$$
  *****  WEATHER ACROSS CENTRAL AND WEST MINNESOTA  *****

CITY           SKY/WX    TMP DP  RH WIND       PRES   REMARKS
FOSSTON        CLEAR     81  30  16 W8        29.76F
BEMIDJI        CLEAR     80  35  20 W6        29.76S
PARK RAPIDS    CLEAR     78  39  24 SW9       29.79S
ELBOW LAKE     FAIR      76  40  27 W9        29.84S
WADENA         CLEAR     77  45  31 SW6       29.82S
DETROIT LAKES  CLEAR     77  36  22 SW7       29.81S
MOORHEAD       CLEAR     84  36  17 SW9       29.77S
FERGUS FALLS   CLEAR     79  41  25 SW10      29.77S
MORRIS MN      CLEAR     79  45  29 SW10      29.84S
STAPLES        CLEAR     75  37  25 SW6       29.82S
$$
  *****  WEATHER ELSEWHERE ACROSS MINNESOTA  *****

CITY           SKY/WX    TMP DP  RH WIND       PRES   REMARKS
DULUTH         PTCLDY    75  40  28 SW14      29.79F
INTRNTL FALLS  PTCLDY    80  48  32 W3        29.68S
ELY            PTCLDY    75  39  27 S5        29.75S
CLOQUET        CLEAR     73  36  25 SW7       29.80F
WHEATON        CLEAR     81  43  26 SW10      29.84S
BRAINERD       CLEAR     76  43  30 S8        29.82F
HIBBING        PTCLDY    78  40  25 SW6       29.76F
ALEXANDRIA     CLEAR     77  42  28 SW9       29.86S
SAINT CLOUD    PTCLDY    77  41  27 SW7       29.85F
MINNEAPOLIS    PTCLDY    77  36  22 SW5       29.88F
$$

  *****  WEATHER ACROSS SOUTH DAKOTA  *****

CITY           SKY/WX    TMP DP  RH WIND       PRES   REMARKS
SIOUX FALLS    PTCLDY    69  47  45 S8        29.92F
BROOKINGS      CLEAR     72  47  40 S9        29.91S
WATERTOWN      CLEAR     72  46  39 S10       29.89S
HURON          CLEAR     78  44  29 S9        29.85F
SISSETON         N/A     79  41  25 SW12      29.82S
ABERDEEN       CLEAR     82  38  20 S15       29.82F
MITCHELL       CLEAR     76  48  37 S9        29.88F
PIERRE         PTCLDY    74  52  46 SE10      29.79F
MOBRIDGE       PTCLDY    79  32  18 S6        29.77F
RAPID CITY     MOCLDY    73  52  47 E9        29.85F
$$

  *****  SOME WEATHER IN NEARBY STATES *****

CITY           SKY/WX    TMP DP  RH WIND       PRES   REMARKS
GLASGOW MT     PTSUNNY   83  44  25 W6        29.76F
GREAT FALLS MT PTSUNNY   69  43  38 N24G35    29.88R
CHEYENNE WY    PTSUNNY   71  32  23 S13       30.05S
SCOTTSBLUFF NE CLOUDY    77  44  30 SE6       29.92F
OMAHA NE       MOCLDY    71  44  37 SE7       29.99S
DES MOINES IA  PTCLDY    68  36  30 S6        30.00S
DAVENPORT IA   CLEAR     62  38  40 CALM      29.99S
CHICAGO IL     PTCLDY    54  37  52 NE6       29.97R
EAU CLAIRE WI  CLEAR     65  39  38 S6        29.91F
LA CROSSE WI   PTCLDY    67  39  35 SE3       29.94S
$$

  *****  SOME NATIONAL WEATHER *****

CITY           SKY/WX    TMP DP  RH WIND       PRES   REMARKS
LA GUARDIA NY  CLOUDY    55  46  71 NE13      29.67R
RALEIGH NC     LGT RAIN  49  47  93 VRB5      29.66R
ATLANTA GA     PTCLDY    54  38  54 N17       29.85R
NEW ORLEANS LA PTCLDY    74  46  36 N10       29.89R
OKLAHOMA CITY  PTCLDY    72  45  37 E8        30.01S
ALBUQUERQUE NM PTSUNNY   81  24  12 S17       29.99F
SALT LAKE CITY CLOUDY    82  27  13 SE21      29.76F
LOS ANGELES CA PTSUNNY   64  50  60 SW10      29.87F
BOISE ID       CLOUDY    74  46  36 NW15      29.70F
SEATTLE WA     MOSUNNY   67  48  50 N12       30.01S
$$

*** WEATHER ACROSS MANITOBA...SASKATCHEWAN AND ONTARIO ***
                ***ONTARIO***

CITY           SKY/WX    TMP DP  RH WIND       PRES   REMARKS
GERALDTON      MOCLDY    54  34  47 S7        29.79R
THUNDER BAY    MOCLDY    48  36  61 NE6       29.80F
SIOUX LOOKOUT  MOCLDY    72  46  40 S3        29.67
TORONTO        MOCLDY    57  41  54 N14       29.81R
BIG TROUT LK   CLOUDY    39  21  48 E12G18    29.83F
PICKLE LAKE    MOCLDY    70  43  37 CALM      29.70R
DRYDEN         CLEAR     79  43  27 SW5       29.67S
KENORA         CLOUDY    82  39  21 SW3       29.68S
$$
                *** MANITOBA***

CITY           SKY/WX    TMP DP  RH WIND       PRES   REMARKS
BRANDON        CLOUDY    86  37  17 SW6       29.65F
DAUPHIN        CLEAR     84  39  20 S6        29.59F
ISLAND LAKE    CLOUDY    54  34  47 NE13G23   29.70S
PILOT MOUND      N/A     81  36  19 SW8         N/A
THE PAS        MOSUNNY   66  45  45 NE8       29.65R
THOMPSON       MOCLDY    46  23  39 E8        29.78R
WINNIPEG       MOCLDY    88  37  16 W8        29.62F
LYNN LAKE      LGT RAIN  45  41  87 N3        29.81R
CHURCHILL      CLOUDY    25  19  80 E12       30.01F WCI  14
GILLAM         MOCLDY    28  21  74 E9G20     29.89F WCI  20
$$
                ***SASKATCHEWAN***

CITY           SKY/WX    TMP DP  RH WIND       PRES   REMARKS
ESTEVAN        PTSUNNY   86  37  17 W13       29.69S
KINDERSLEY     PTSUNNY   61  36  39 N25G36    29.93R
LLOYDMINSTER   PTSUNNY   52  36  54 NW6       30.00R
PRINCE ALBERT  CLOUDY    63  39  42 N20G25    29.83R
REGINA         MOSUNNY   82  39  21 NW22G30   29.72R
YORKTON        SUNNY     84  41  21 W13G18    29.63S
N. BATTLEFORD  PTSUNNY   59  41  51 NW18G24   29.94R
LA RONGE       CLOUDY    50  45  81 W7        29.89R
SASKATOON      PTSUNNY   64  39  39 N29G36    29.84R
SWIFT CURRENT  SUNNY     73  36  25 NW14G26   29.83R
$$
NOTE: THESE ARE AUTOMATED STATIONS WITH LIMITED QUALITY CONTROL
      "FAIR" INDICATES FEW OR NO CLOUDS BELOW 12,000 FEET WITH NO
      SIGNIFICANT WEATHER AND/OR OBSTRUCTIONS TO VISIBILITY.
      SKY/WX - SKY CONDITION AND SIGNIFICANT WEATHER.
      TMP - AIR TEMPERATURE.    DP   - DEWPOINT TEMPERATURE.
      RH  - RELATIVE HUMIDITY.  PRES - PRESSURE.
      HX  - HEAT INDEX.         WCI  - WIND CHILL INDEX.
$



USA.gov is the U.S. government's official web portal to all federal, state and local government web resources and services.